NOAA 16 DEB, 41713

Orbit data source: Space-Track

NOAA 16 DEB, 41713 is space debris in SSO originally from a launch on Thu, 21 Sep 2000 UTC launched from the Air Force Western Test Range (AFWTR). Debris objects in space refer to the collection of defunct objects orbiting the Earth. Examples of debris include non-operational satellites, rocket bodies, and fragments generated from explosions, collisions, or faulty payload assembly.

Loading next visibility...
Identifier
41713, 2000-055PT
Orbit
SSO
Country
Flag of USUS
Related business
Manufacturer
Unknown
Mission
Spacecraft
Bus & Motor
Unknown
Mass
Unknown
Launch date (UTC)
2000-09-21 (26 years ago)
Launch vehicle
Unknown
Launch site
Air Force Western Test Range (AFWTR)
Object type
Payload
Rocket body
Debris
Shape & HBR
Unknown shape, 0.1 m
Radar Cross Section
Small (<0.1 m²)

Expand to show TLE details & history
Last TLE update: 1 week ago

TLE from 1 week ago
0 NOAA 16 DEB
1 41713U 00055PT  26166.74919392  .00003395  00000-0  18107-2 0  9990
2 41713  98.8872 148.3434 0096357 128.7642 232.2188 14.11600281514007
Epoch: 2026-06-15T17:58Z
TLE epoch observation values (Epoch: 2026-06-15T17:58:50.354Z)
Latitude
-0.00002°
Longitude
-25.39752°
Altitude
899.916 km
Speed
7.38 km/s
True Right ascension
09h 53m 22s
True Declination
0° 00' 00"
Sunlit
Object was in daylight at epoch
Visualization orbit readout
Latitude
Unknown
Longitude
Unknown
Altitude
Unknown
Speed
Unknown
Apparent Right ascension
Unknown
Apparent Declination
Unknown
Sunlit
N/A
Visualization observer readout
Local Sidereal Time
21:38:32
Azimuth
Unknown
Elevation
Unknown
Doppler factor
Unknown
Orbital elements
Apogee altitude
920.737 km
Perigee altitude
781.42 km
Semi-major axis
7,229.216 km
Eccentricity
0.00964
Inclination
98.8872°
RAAN
148.3434°
Arg. of periapsis
128.7642°
True anomaly
231.35254°
Mean anomaly
232.2188°
Eccentric anomaly
231.78503°
Mean motion
3.53107 °/min
Orbital period
101.95 mins
BSTAR
0.0018107
Loading maneuver chart data...
Computing Atmospheric mass density...
Loading historical data...
Loading historical data...
Loading historical data...
Loading historical data...
Loading historical data...
Loading historical data...
Loading historical data...

Documentation

Showing up to 5 results
|